Location: Buntenbock
(51.7777°N, 10.3331°E)
Time: 12:55:58
(UTC+00:00)

Daily predictions for brighter satellites

Satellite Brightness Start Highest point End
(mag) Time Altitude Azimuth Time Altitude Azimuth Time Altitude Azimuth
Meteor 1-24 Rocket 4.0 16:27:04 10° SSW 16:32:21 71° WNW 16:37:43 10° N
CORIOLIS 4.1 16:29:35 10° SSE 16:34:58 78° ENE 16:40:21 10° NNW
Cosmos 2297 Rocket 4.3 16:32:29 10° NW 16:35:19 14° NNW 16:38:10 10° N
NOSS 2-1 (E) 4.3 16:33:24 10° S 16:36:06 23° ESE 16:38:58 10° ENE
COSMOS 2455 3.1 16:30:38 10° SW 16:36:40 76° NW 16:42:44 10° NE
CZ-2C R/B 3.8 16:31:46 10° SE 16:36:52 38° ENE 16:42:10 10° N
Cosmos 1340 4.0 16:34:22 10° SE 16:37:13 21° E 16:40:06 10° NE
CZ-4B R/B 3.3 16:32:45 10° SSE 16:38:22 85° ENE 16:44:05 10° NNW
Aureole 2 Rocket 2.8 16:35:53 10° SW 16:38:54 55° WNW 16:42:00 10° NNE
SMAP 3.3 16:38:03 10° SSE 16:42:43 80° WSW 16:47:25 10° NNW
Cosmos 2058 Rocket 3.5 16:39:51 10° NNW 16:44:22 70° W 16:48:51 10° S
Cosmos 1455 2.1 16:42:28 10° N 16:46:20 82° E 16:50:11 10° SSE
Cosmos 405 3.9 16:43:34 10° N 16:46:41 28° ENE 16:49:46 10° SE
ARGOS 4.2 16:46:01 10° ESE 16:50:12 24° ENE 16:54:25 10° N
Cosmos 1626 Rocket 3.9 16:47:10 10° SSE 16:51:24 47° E 16:55:41 10° NNE
Cosmos 1092 Rocket 4.3 16:46:34 10° SSE 16:52:19 44° E 16:58:05 10° NNE
Cosmos 2263 Rocket 3.7 16:48:22 10° WSW 16:53:20 30° NW 16:58:17 10° NNE
Cosmos 1898 Rocket 3.9 16:49:43 10° S 16:54:40 44° ESE 16:59:36 10° NE
CZ-4C R/B 3.0 16:51:42 10° N 16:54:52 70° WNW 16:58:05 10° SSW
CZ-2C R/B 4.4 16:53:30 10° ENE 16:55:36 12° E 16:57:43 10° ESE
TELKOM 3 3.4 16:54:20 10° W 16:56:25 48° S 16:58:27 11° ESE
Cosmos 1680 Rocket 3.8 16:51:37 10° NNW 16:56:53 76° WSW 17:02:04 10° SSE
Nadezhda 4 Rocket 4.0 16:54:49 10° S 17:01:01 77° E 17:07:11 10° NNE
CZ-4B R/B 2.0 17:00:20 10° NNE 17:03:23 33° E 17:06:21 10° SSE
Cosmos 1328 4.3 16:59:57 10° SSE 17:03:39 37° E 17:07:20 10° NNE
Landsat 5 3.7 17:00:43 10° N 17:04:35 63° WNW 17:08:21 10° SSW
MOS 1 Rocket 3.8 17:01:09 10° NNE 17:05:01 32° E 17:08:56 10° SSE
CZ-2D R/B 3.3 17:02:54 10° SSE 17:06:39 55° ENE 17:10:25 10° N
Meteor 2-8 Rocket 4.4 17:01:08 10° N 17:07:13 63° ENE 17:13:17 10° SSE
Cosmos-2242 3.5 17:04:19 10° N 17:08:20 37° ENE 17:12:21 10° SE
NOSS 3-1 (C) 4.5 17:03:50 10° NW 17:11:07 68° SW 17:19:38 10° SSE
COSMO-SKYMED 1 2.9 17:08:16 10° NNE 17:12:29 45° E 17:16:39 10° S
BREEZE-M DEB (TANK) 2.4 17:13:19 10° W 17:15:32 47° S 17:17:14 16° ESE
Aureole 3 3.8 17:13:06 10° NNW 17:16:09 46° W 17:19:00 10° S
Cosmos 1937 Rocket 3.7 17:12:11 10° S 17:17:18 50° ESE 17:22:27 10° NNE
Cosmos 1758 Rocket 4.1 17:14:01 10° SSE 17:18:08 38° E 17:22:18 10° NNE
Okean 1-7 Rocket 4.4 17:14:42 10° SSW 17:19:12 56° WNW 17:23:43 10° N
USA 290 2.1 17:17:24 10° NNW 17:20:36 67° ENE 17:23:45 10° SSE
Cosmos 1833 Rocket 2.6 17:18:48 10° NNW 17:24:28 83° ENE 17:30:06 10° SSE
NOSS 2-1 (C) 2.8 17:21:44 10° SW 17:25:02 76° SE 17:27:19 20° NE
CZ-4 R/B 4.3 17:22:30 10° SSE 17:26:39 79° ENE 17:30:50 10° NNW
Cosmos 2221 4.1 17:24:32 10° NNE 17:26:48 17° NE 17:26:48 17° NE
H-2A R/B 2.1 17:24:10 10° SE 17:29:07 55° ENE 17:34:14 10° N
H-2A R/B 2.7 17:25:21 10° N 17:29:42 58° WNW 17:33:55 10° SSW
Meteor 1-21 Rocket 4.4 17:25:18 10° SSW 17:30:50 78° WNW 17:36:30 10° N
NOSS 2-1 (D) 2.8 17:27:40 10° SW 17:30:58 86° SE 17:33:06 22° NE
Cosmos 2344 4.4 17:21:59 10° NW 17:31:00 87° SW 17:43:36 10° SE
Cosmos 1939 Rocket 3.6 17:27:27 10° S 17:31:27 56° W 17:35:26 10° NNW
Helios 1A Rocket 3.2 17:27:44 10° SE 17:31:40 43° ENE 17:35:37 10° N
USA 229 DEB 4.3 17:25:26 10° NW 17:32:36 67° SW 17:40:11 10° SSE
Cosmos 389 Rocket 3.7 17:29:41 10° N 17:32:02 23° NE 17:32:02 23° NE
USA 229 4.3 17:25:32 10° NW 17:32:43 67° SW 17:40:19 10° SSE
SeaSat 1 3.8 17:28:45 10° NNE 17:33:13 35° NW 17:37:39 10° WSW
CSL-04 DEB 4.4 17:30:14 10° NNE 17:34:25 90° SW 17:38:26 10° SSW
CZ-3B R/B 2.6 17:32:01 10° WNW 17:34:32 51° SSW 17:41:23 10° SE
Cosmos 1602 Rocket 3.5 17:30:32 10° S 17:34:54 89° W 17:39:21 10° N
Cosmos 44 3.5 17:30:16 10° SW 17:35:10 73° NW 17:39:31 15° NE
Cosmos 2026 Rocket 3.9 17:30:06 10° S 17:36:12 69° E 17:42:28 10° NNE
SKYMED 3 4.5 17:32:13 10° NNE 17:36:35 77° ESE 17:40:56 10° S
Meteor 2-15 Rocket 4.4 17:31:47 10° N 17:37:54 61° ENE 17:43:59 10° SSE
SJ 16-02 2.8 17:34:12 10° SW 17:38:17 36° WNW 17:42:23 10° N
Cosmos 1689 Rocket 3.5 17:41:34 22° SE 17:41:34 22° SE 17:42:59 10° SSE
YAOGAN 1 2.5 17:36:24 10° SSE 17:40:41 67° ENE 17:45:00 10° N
Cosmos 1553 Rocket 4.0 17:34:35 10° N 17:40:59 64° ENE 17:47:15 10° SSE
Cosmos 990 Rocket 4.2 17:36:29 10° SSW 17:41:41 73° WNW 17:46:53 10° NNE
Aureole 3 Rocket 2.6 17:38:43 10° NNW 17:41:53 77° W 17:45:44 10° S
SJ-11-01 4.2 17:37:54 10° SSE 17:42:31 62° ENE 17:47:08 10° N
Cosmos 1844 Rocket 3.7 17:38:16 10° WSW 17:43:40 44° NW 17:49:04 10° NNE
COSMOS 2406 3.6 17:38:01 10° NW 17:43:47 68° WSW 17:49:28 10° SSE
Cosmos 2082 Rocket 2.1 17:38:33 10° NNW 17:44:18 69° ENE 17:49:59 10° SE
Meteor 1-27 4.1 17:42:16 10° N 17:47:53 69° ENE 17:53:25 10° SSE
NOSS 3-1 (A) 4.5 17:40:57 10° NW 17:48:15 65° SW 17:56:44 10° SSE
HJ-1C 3.6 17:47:04 30° SE 17:48:19 46° ENE 17:51:34 10° N
Cosmos 1703 4.0 17:45:10 10° SSW 17:48:57 53° WNW 17:52:47 10° N
X-37B 3.0 17:47:36 10° WSW 17:49:51 18° SSW 17:51:36 12° SSE
Cosmos 1825 Rocket 3.6 17:45:39 10° S 17:49:56 56° E 17:54:18 10° NNE
IRS-1C Rocket 4.3 17:45:01 10° S 17:50:16 72° WSW 17:55:34 10° NNW
deb Kosmos-1763 3.9 17:47:26 10° NNW 17:51:01 65° ENE 17:52:52 26° SE
NOSS 2-2 (E) 4.4 17:46:46 10° NW 17:51:47 59° NE 17:56:04 22° ESE
ISS -3.8 17:49:41 10° W 17:53:05 89° S 17:53:50 52° E
Okean O Rocket 4.2 17:52:58 10° SW 17:56:29 23° W 18:00:00 10° NW
ATLAS 2AS CENTAUR R/B 3.9 17:49:41 10° WNW 17:56:41 34° N 18:00:54 20° NE
Cosmos 2227 Rocket 4.5 17:57:09 10° NNW 17:58:25 11° N 17:59:41 10° N
ATLAS 5 CENTAUR R/B 3.5 17:55:05 10° NW 17:58:45 22° N 18:00:57 17° NNE
Iridium 4 Rocket 3.7 17:53:46 10° N 17:59:14 73° W 18:04:11 10° S
Cosmos 2315 Rocket 4.5 17:53:31 10° N 17:59:14 36° ENE 18:01:36 27° ESE
CZ-4 R/B 1.6 17:56:23 10° S 18:00:24 68° WSW 18:04:22 10° NNW
SKYMED 2 4.0 17:56:18 10° N 18:00:38 65° WNW 18:04:56 10° SSW
ERS-2 1.9 17:58:39 25° NNE 18:00:40 77° ESE 18:04:18 10° SSW
CSL-04 Rocket 3.6 17:59:19 10° SSE 18:04:45 72° ENE 18:10:17 10° NNW
S3M 3.8 18:01:23 10° N 18:07:30 69° ENE 18:13:36 10° SSE
Okean-O 2.9 18:03:29 10° S 18:07:53 68° WSW 18:12:21 10° NNW
CZ-4C R/B 3.7 18:03:28 10° NW 18:08:57 31° N 18:11:46 24° NE
USA 234 3.5 18:05:52 29° ENE 18:09:10 57° N 18:15:34 10° WNW
Ariane Rocket 3.8 18:11:25 32° NE 18:11:25 32° NE 18:15:13 10° N
Cosmos 1340 4.1 18:09:06 10° SW 18:12:36 37° WNW 18:16:08 10° N
Cosmos 1346 Rocket 2.7 18:09:03 10° SSW 18:12:59 87° WNW 18:15:12 25° NNE
Cosmos 1655 Rocket 4.0 18:07:21 10° SSE 18:13:22 54° E 18:19:24 10° NNE
Cosmos 2278 Rocket 2.1 18:07:57 10° SSW 18:13:38 81° ESE 18:17:11 24° NNE
Cosmos 1953 Rocket 3.4 18:12:06 10° S 18:16:25 69° E 18:17:58 38° NNE
CZ-2C R/B 4.4 18:11:24 10° SSW 18:16:40 44° W 18:22:11 10° NNW
USA 281 4.2 18:17:59 26° NE 18:18:30 26° NE 18:23:46 10° NNW
SAR-Lupe-4 3.5 18:17:50 52° N 18:18:37 82° WNW 18:22:12 10° SSW
SWARM A 4.3 18:15:45 10° S 18:18:52 72° SW 18:18:52 72° SW
Cosmos 2292 Rocket 3.5 18:16:37 10° S 18:20:40 58° SE 18:20:40 58° SE
Cosmos 2297 Rocket 4.4 18:20:34 10° N 18:22:07 11° N 18:23:18 10° NNE
Genesis I 4.3 18:19:42 10° NNW 18:22:29 33° N 18:22:29 33° N
COSMOS 2455 4.5 18:18:29 10° W 18:23:34 27° NNW 18:27:33 14° NNE
Cosmos 44 Rocket 3.8 18:19:08 10° SSW 18:23:19 42° SE 18:23:19 42° SE
NOSS 2-1 (E) 4.0 18:23:09 10° WSW 18:26:20 40° NNW 18:26:47 38° NNW
DMSP B5D1-3 4.4 18:22:10 10° NNE 18:27:18 83° ESE 18:32:25 10° SSW
Cosmos 1842 Rocket 4.3 18:24:21 10° N 18:27:18 38° NNE 18:27:18 38° NNE
Meteor 2-2 Rocket 4.2 18:23:06 10° N 18:29:04 72° ENE 18:34:20 14° SSE
Cosmos 1869 3.2 18:25:42 10° NNW 18:29:37 80° W 18:30:11 63° SSW
ARGOS 3.3 18:24:39 10° S 18:30:00 71° WSW 18:35:25 10° NNW
NOSS 2-2 (D) 4.2 18:26:11 10° NW 18:31:17 80° NE 18:33:29 43° ESE
PSLV R/B 4.5 18:28:24 14° N 18:31:55 60° WNW 18:36:03 10° SSW
Transit 2A Rocket 4.4 18:30:04 10° NW 18:34:18 74° N 18:34:18 74° N
CZ-4B R/B 4.0 18:32:55 10° NNW 18:35:24 20° WNW 18:37:51 10° WSW
CZ-2C R/B 2.6 18:33:45 26° NNE 18:36:58 66° ESE 18:42:33 10° S
Cosmos 372 Rocket 4.1 18:32:02 10° SSW 18:37:15 74° WNW 18:39:58 29° NNE
Cosmos 494 Rocket 3.9 18:35:54 10° NNW 18:41:05 85° WSW 18:42:29 50° SSE
Cosmos 1048 Rocket 4.5 18:40:59 10° NNW 18:46:01 57° WSW 18:49:36 19° S
Cosmos 2150 Rocket 3.9 18:41:16 10° SSW 18:45:58 69° SSE 18:45:58 69° SSE
MOS 1 4.2 18:51:16 65° NE 18:51:16 65° NE 18:56:39 10° NNW
Cosmos 909 Rocket 4.1 18:53:08 10° NW 18:59:32 68° NE 19:00:09 65° ENE
Cosmos 2221 3.9 19:01:14 10° NNW 19:03:42 32° NNW 19:03:42 32° NNW
H-2A R/B 4.1 19:04:39 10° SSW 19:08:53 26° W 19:13:16 10° NW
Cosmos 2298 Rocket 4.3 19:08:32 10° SW 19:13:35 66° W 19:13:35 66° W
Cosmos 2266 Rocket 4.1 19:09:25 10° SSW 19:15:38 72° WNW 19:21:46 10° N
Cosmos 2082 Rocket 4.2 19:23:21 10° NW 19:27:54 25° WSW 19:32:25 10° SSW
ISS -0.3 19:26:32 10° W 19:26:48 12° W 19:26:48 12° W
NOSS 3-4 (A) 4.3 19:25:14 10° NW 19:30:38 44° N 19:30:38 44° N
NOSS 3-4 (C) 4.3 19:25:20 10° NW 19:30:43 44° N 19:30:43 44° N
ATLAS 5 CENTAUR R/B 4.0 19:40:29 10° NW 19:42:29 21° NNW 19:42:29 21° NNW
ATLAS 2AS CENTAUR R/B 3.6 19:42:07 10° NW 19:48:21 43° N 19:48:21 43° N
USA 234 3.6 19:53:13 61° NW 19:53:13 61° NW 19:58:31 10° WNW
Cosmos 2278 Rocket 3.9 19:53:36 10° W 19:58:23 27° NW 19:59:05 26° NNW
CZ-4C R/B 3.6 19:52:22 10° NW 19:56:58 42° NNW 19:56:58 42° NNW
USA 281 4.1 20:04:50 41° NNW 20:04:50 41° NNW 20:08:52 10° NNW
